Regional Weather Roundup
Issued by NWS

Home | Current Version | Previous Version | Text Only | Print | Product List | Glossary On
Versions: 1 2 3 4 5 6 7 8 9 10 11 12 13 14 15 16 17 18 19 20 21 22 23 24 25 26 27 28 29 30 31 32 33 34 35 36 37 38 39 40 41 42 43 44 45 46 47 48 49 50
000
ASUS43 KLOT 190559
RWRIL

ILLINOIS REGIONAL WEATHER ROUNDUP
NATIONAL WEATHER SERVICE CHICAGO/ROMEOVILLE IL
100 AM CDT TUE SEP 19 2017

NOTE: "FAIR" INDICATES FEW OR NO CLOUDS BELOW 12,000 FEET WITH NO
SIGNIFICANT WEATHER AND/OR OBSTRUCTIONS TO VISIBILITY.

* THESE STATIONS ARE NOT UNDER NWS QUALITY CONTROL. THEY ALSO MAY NOT
  REPORT WEATHER SUCH AS PRECIPITATION OR FOG.

ILZ001-002-007-009-015-016-024-190700-
NORTHWEST ILLINOIS

CITY           SKY/WX    TMP DP  RH WIND       PRES   REMARKS
MOLINE         MOCLDY    66  64  94 E3        29.93F
$$

ILZ003-004-008-010-011-017-018-190700-
NORTH CENTRAL ILLINOIS

CITY           SKY/WX    TMP DP  RH WIND       PRES   REMARKS
ROCKFORD       NOT AVBL
$$

ILZ005-006-012>014-019>023-190700-
NORTHEAST ILLINOIS

CITY           SKY/WX    TMP DP  RH WIND       PRES   REMARKS
CHICAGO-OHARE  CLOUDY    67  61  81 NE8       29.96F
6HR MIN TEMP:  66; 6HR MAX TEMP:  68;

CHICAGO-MIDWAY NOT AVBL
AURORA         HVY RAIN  62  61  96 SE9       30.00R VSB 3/4
6HR MIN TEMP:  62; 6HR MAX TEMP:  69; 6HR PCP:  0.75;

WAUKEGAN       NOT AVBL
DUPAGE AIRPORT NOT AVBL
WHEELING       NOT AVBL
NORTHERLY ISL    N/A     67  63  87 NE8         N/A
$$

LMZ740>746-190700-
SOUTHERN LAKE MICHIGAN

STATION/POSITION SKY/WX   TEMP    WIND        PRES    VSBY  WAVE
                          AIR SEA DIR/SP/G                  HT/PER
                          (F)     (DEG/KT/KT) (MB)    (MI)  (FT/S)
SOUTHERN BUOY              67 68   60/  8/ 10 1015.4F         2/ 4
WILMETTE HARBOR            67 69   50/  8/ 10   N/A           2/ 5
HARRISON CRIB              68      50/  9/  9   N/A
CALUMET HARBOR             67      10/  4/  8 1014.0F
BURNS HARBOR               67      80/  5/  6 1014.9F
MICHIGAN CITY              67     100/  4/  5   N/A
MICHIGAN CITY 6N           67 68   90/  6/  8   N/A           2/ 4
ST. JOSEPH                 67 69  130/  6/  8 1014.8F         2/ 4
$$

ILZ025>027-034>036-040-047-049-050-058-095>099-190700-
WEST-CENTRAL ILLINOIS

CITY           SKY/WX    TMP DP  RH WIND       PRES   REMARKS
$$

ILZ028>032-037-038-041>044-048-051>054-059>061-190700-
CENTRAL ILLINOIS

CITY           SKY/WX    TMP DP  RH WIND       PRES   REMARKS
PEORIA         CLOUDY    68  68 100 CALM      29.94F
SPRINGFIELD    CLOUDY    68  68 100 CALM      29.94F FOG
6HR MIN TEMP:  68; 6HR MAX TEMP:  81; 6HR PCP:  0.01;

TAYLORVILLE    NOT AVBL
$$

ILZ033-039-045-046-055>057-062-063-190700-
EAST-CENTRAL ILLINOIS

CITY           SKY/WX    TMP DP  RH WIND       PRES   REMARKS
CHAMPAIGN      LGT RAIN  70  68  93 SW6       29.95S FOG
$$

ILZ079-100>102-190700-
SOUTHWEST ILLINOIS

CITY           SKY/WX    TMP DP  RH WIND       PRES   REMARKS
$$

ILZ064>066-069>071-074>076-080>082-084>086-088>090-092>094-190700-
SOUTH-CENTRAL ILLINOIS

CITY           SKY/WX    TMP DP  RH WIND       PRES   REMARKS
CARBONDALE     LGT RAIN  70  70 100 W3        29.94S FOG
6HR MIN TEMP:  69; 6HR MAX TEMP:  76; 6HR PCP:  0.41;

$$

ILZ067-068-072-073-078-083-087-091-190700-
SOUTHEAST ILLINOIS

CITY           SKY/WX    TMP DP  RH WIND       PRES   REMARKS
$$

ABBREVIATIONS USED IN REMARKS
   TC - TEMPERATURE IN CELSIUS
  WCI - WIND CHILL INDEX
   HX - HEAT INDEX
  VSB - VISIBILITY
$$





USA.gov is the U.S. government's official web portal to all federal, state and local government web resources and services.